Regional Weather Roundup
Issued by NWS Wakefield, VA

Home | Current Version | Previous Version | Text Only | Print | Product List | Glossary Off
Versions: 1 2 3 4 5 6 7 8 9 10 11 12 13 14 15 16 17 18 19 20 21 22 23 24 25 26 27 28 29 30 31 32 33 34 35 36 37 38 39 40 41 42 43 44 45 46 47

000
ASUS41 KAKQ 071714
RWRAKQ

REGIONAL WEATHER ROUNDUP
NATIONAL WEATHER SERVICE WAKEFIELD VA
1200 PM EST SUN FEB 07 2016

Note: "fair" indicates few or no clouds below 12,000 feet with no
significant weather and/or obstructions to visibility. * = Denotes
station may not report precipitation (e.g., rain,snow,etc.),
thunder or fog.

VAZ042-051-052>054-056-071800-
NORTHERN VIRGINIA

CITY           SKY/WX    TMP DP  RH WIND       PRES   REMARKS
WASH NATIONAL  CLOUDY    44  25  47 N6        30.12F
DULLES         PTSUNNY   39  23  52 NW8       30.12F
FORT BELVOIR   FAIR      45  20  37 N8        30.11F
QUANTICO       FAIR      40  30  67 E7        30.13F
FREDERICKSBRG* FAIR      44  24  45 N3        30.11F
STAFFORD*      FAIR      44  18  35 N8        30.15F
WARRENTON      FAIR      44  26  49 N8        30.10F
CULPEPER*      FAIR      40  25  54 N6        30.12F
MANASSAS*      SUNNY     41  25  52 N12       30.12F
LEESBURG*      FAIR      41  28  60 N5        30.13F
WINCHESTER     FAIR      41  23  48 CALM      30.11F
FRONT ROYAL*   FAIR      36  27  69 CALM      30.11F
LURAY*         FAIR      34  27  75 S3        30.11S
$$

VAZ048-049-060>072-079>083-071800-
CENTRAL AND SOUTH CENTRAL VIRGINIA

CITY           SKY/WX    TMP DP  RH WIND       PRES   REMARKS
RICHMOND       CLOUDY    41  25  53 N8        30.09F
CHESTERFIELD*  FAIR     N/A N/A N/A NE7       30.09F
PETERSBURG*    FAIR      42  21  42 NE10      30.09F
HANOVER        FAIR      42  24  49 N6        30.10F
TAPPAHANNOCK*  FAIR      42  27  54 N5        30.12S
QUINTON*       FAIR      40  26  55 N5        30.09F
CHARLOTTSVILLE FAIR      41  22  46 VRB3      30.09F
GORDONSVILLE*  FAIR      42  23  47 NE7       30.09F
ORANGE*        FAIR      43  25  49 N6        30.12S
LOUISA*        FAIR      43  23  45 N8        30.08F
BUMPASS*       FAIR      43  20  39 N8        30.10F
FARMVILLE*     FAIR      43  23  45 N12       30.06F
CREWE*         FAIR      40  23  49 N8        30.08S
FORT PICKETT*  FAIR      40  23  49 N8        30.08R
CHASE CITY*    FAIR      40  20  44 NE8       30.06F
CLARKSVILLE*   FAIR      41  23  48 N6        30.06S
SOUTH HILL*    FAIR      39  23  51 NE6       30.12R
LAWRENCEVILLE* FAIR      39  25  56 NE3       30.07R
EMPORIA*       CLOUDY    37  27  65 N7        30.08S
$$

VAZ088>098-071800-
SOUTHEAST VIRGINIA

CITY           SKY/WX    TMP DP  RH WIND       PRES   REMARKS
NORFOLK        FAIR      42  26  53 NE23      30.03F
VIRGINIA BEACH CLOUDY    45  33  63 NE21G29   30.03F
NORFOLK NAVAL  CLOUDY    42  25  50 NE16G25   30.06F
WEST POINT*    FAIR      41  25  53 NE6       30.11F
SALUDA*        FAIR      41  28  60 NE7       30.09F
NEWPORT NEWS   FAIR      41  29  62 NE14G23   30.07F
LANGLEY AFB    FAIR      40  29  64 NE16      30.05F
FORT EUSTIS    FAIR      41  27  56 NE9       30.05F
WILLIAMSBURG*  FAIR      45  32  61 NE5       30.08F
HR EXEC AP*    FAIR      41  25  52 NE13G21   30.07F
FRANKLIN*      CLOUDY    39  27  62 NE12G21   30.06F
US460-WAKEFLD  FAIR      41  26  55 VRB7      30.07F
$$

VAZ020-022-025-037-045-071800-
WEST CENTRAL AND SOUTHWEST VIRGINIA

CITY           SKY/WX    TMP DP  RH WIND       PRES   REMARKS
STAUNTON*      FAIR      37  28  69 CALM      30.12S
WAYNESBORO*    FAIR      35  23  62 CALM      30.09R
HOT SPRINGS VA FAIR      33  21  59 CALM      29.99S
LYNCHBURG      FAIR      41  23  48 NE7       30.08F
DANVILLE       FAIR      43  22  43 NE14      30.07F
SOUTH BOSTON*  FAIR      40  22  49 N5        30.08F
MARTINSVILLE   FAIR      41  21  45 N5        30.09F
ROANOKE        PTSUNNY   40  23  50 CALM      30.09F
BLACKSBURG     FAIR      40  26  57 W3        30.08F
DUBLIN*        FAIR      42  23  46 N8        30.07F
MARION*        FAIR      44  23  43 W10G16    30.07F
HILLSVILLE*    FAIR      37  22  54 N9        30.03F
RICHLANDS*     FAIR      42  14  32 NE5       30.08F
WISE*          FAIR      43  14  31 NW8       30.10F
ABINGDON*      FAIR      44  22  41 S6        30.10F
$$

MDZ021>025-VAZ099-100-071800-
SOUTHERN MARYLAND AND THE DELMARVA PENINSULA

CITY           SKY/WX    TMP DP  RH WIND       PRES   REMARKS
PATUXENT RIVER CLOUDY    40  28  62 NE12      30.12F
BAY BRIDGE APT   N/A     36  28  75 N9        30.13F
LEONARDTOWN    CLOUDY    41  27  56 NE5       30.13F
DOVER          CLOUDY    42  33  70 N7        30.11F
GEORGETOWN     CLOUDY    40  29  64 NE7       30.14F
EASTON         CLOUDY    43  28  56 NE12      30.16F
CAMBRIDGE      CLOUDY    41  28  60 N6        30.12F
SALISBURY      PTSUNNY   40  26  57 NE7       30.13F
OCEAN CITY     PTSUNNY   41  32  70 NE12      30.13F
WALLOPS ISLAND FAIR      41  30  65 NE15      30.12F
ACCOMACK*      PTSUNNY   37  23  56 NE10      30.10F
$$

NCZ012>017-030>032-071800-
NORTH CENTRAL AND EASTERN NORTH CAROLINA

CITY           SKY/WX    TMP DP  RH WIND       PRES   REMARKS
ROANOKE RAPIDS FAIR      37  27  65 NE14G21   30.04F
RALEIGH        CLOUDY    40  22  48 NE7       30.04S
ELIZABETH CITY LGT RAIN  42  35  76 N24G31    29.97F
AHOSKIE*       CLOUDY    38  28  65 N15G22    30.02F
EDENTON*       LGT RAIN  41  33  73 NE13G21   29.96F
CURRITUCK*     CLOUDY    44  35  69 N17G29    30.02F
KILL DEVIL HLS DRIZZLE   45  40  83 N13G22    29.92F
MANTEO         LGT RAIN  45  42  88 NE22G30   29.95S
CAPE HATTERAS  RAIN      47  45  93 NE20G36   29.80F
TARBORO*       FLURRIES  37  32  84 N9        30.00F
GOLDSBORO      CLOUDY    36  36 100 N12       29.95F
WASHINGTON     LGT RAIN  37  32  85 N13G18    29.92F
GREENVILLE     LGT RAIN  36  32  87 N14       29.98F
NEW BERN       RAIN      38  34  85 N18G32    29.86F FOG
WILMINGTON     HVY RAIN  35  31  85 N25G35    29.83F FOG     WCI  23
$$

VAZ048-071800-
ELSEWHERE

CITY           SKY/WX    TMP DP  RH WIND       PRES   REMARKS
HARRISBURG PA  PTSUNNY   40  25  55 SW5       30.14F
BALTIMORE      CLOUDY    41  23  48 CALM      30.12F
ANNAPOLIS      CLOUDY    40  25  55 N7        30.12F
ANDREWS AFB    FAIR      42  23  46 NE9       30.10F
PHILADELPHIA   PTSUNNY   44  25  47 E7        30.14F
HENDERSON NC   CLOUDY    40  20  44 N8        30.04S
GREENSBORO     CLOUDY    42  21  43 N9        30.04F
ROCKY MOUNT    LGT RAIN  35  30  82 N12       30.01F
$$

VAZ100-071800-
MARINE

STATION/POSITION TIME  TEMP    WIND        PRES    WAVE   SWELL
                       AIR SEA DIR/SP/G            HT/PER HT/PER
                 (UTC) (F)     (DEG/KT/KT) (MB)    (FT/S) (FT/S)
BRANDYWINE LGT   1600   37      10/ 10/ 12 1021.2R
CAPE MAY NJ      1600   39 42  350/  3/  5 1021.2R
LEWES DE         1600   39 42   20/  8/  9 1021.5R
15NM E FENWICK I 1650   42 45              1020.0F   3/10
OCEAN-CITY-INLET 1600   40 41   40/  7/ 11 1020.5R
WACHAPREAGUE VA  1600   39 42   30/ 12/ 17 1019.6F
THOMAS POINT MD  1700   36      30/ 12     1020.6F
GOOSES REEF MD   1700   38 40   20/ 10/ 14 1021.0F   1/ 2
COVE POINT MD    1600   36      10/  9/ 12 1021.1F
SOLOMONS ISLAND  1600   40 41  360/  9/ 11   N/A
BISHOPS HEAD MD  1600   39 40   30/  6/ 11 1019.6F
POTOMAC MD       1700   39 41   40/ 10/ 12 1019.1F   0
CAMBRIDGE MD     1600   39 40  350/  4/  7 1019.9F
LEWISETTA VA     1600   40 41   10/  6/ 10 1019.9F
RAPPAHANNOCK LGT 1600           30/ 19/ 20 1019.8F
STINGRAY PT      1700   40 42   40/ 16/ 17 1018.8F   2/ 3
YORK RVR RNG VA  1600   40      40/ 18/ 20 1018.7S
YORKTOWN VA      1600   40 43   30/  9/ 14 1019.2F
JAMESTOWN VA     1700   39 44   30/  8/ 14   N/A     0
DOMINION TERM VA 1600   41      50/  8/ 16 1019.3R
KIPTOPEKE VA     1600      42   40/  9/ 13   N/A
CHES BAY BRIDGE  1600   41 43   20/ 17/ 22 1018.6R
CAPE HENRY VA    1600   41      20/ 18/ 21   N/A
CHESAPEAKE LGHT  1600   43      40/ 27/ 30 1018.3F
WILLOUBY STN VA  1600   40      40/ 20/ 23 1027.5S
CAPE HENRY BUOY  1628      46                N/A     6/ 5   2/11
1ST LANDING BUOY 1700      44                N/A     3/ 4
CAPE CHARLES BUO 1626      44                N/A     5/ 5   2/10
OFFSHORE WE BUOY 1621      49                N/A     6/ 6   2/11
64NM E OF VA BCH 1650   51 54   40/ 25/ 31 1013.6F   8/ 6   3/10
DUCK PIER NC     1600   45 44   20/ 27/ 32 1015.1F
44100 DUCK FRF   1624      47                N/A     7/ 6   2/11
44056 DUCK FRF   1611      44                N/A     7/ 6   2/11
OREGON INLET NC  1600   47 45   10/ 18/ 25 1013.4F
HATTERAS NC      1600   47 48   20/ 27/ 38 1010.4F
DIAMOND SHLS NC  1650   56 70   20/ 33/ 41 1006.9F  12/ 7
$$



USA.gov is the U.S. government's official web portal to all federal, state and local government web resources and services.